Simultaneous Nadir Overpasses (SNOs) Predictions

Prediction of SNOs between NOAA-19 and METOP-C Satellite Orbit:

Table of predicted SNOs for the next 14.0 days since TLE Epoch: 1/3/2020
Index Date (NOAA-19) Time (NOAA-19) Lat,Lon (NOAA-19) SZA (NOAA-19 ) Date (METOP-C) Time (METOP-C) Lat,Lon (METOP-C) SZA (METOP-C ) Distance(km) Time Diff (sec)
1 01/03/2020 21:54:29 79.69,-128.84 102.94 01/03/2020 21:55:12 79.71,-128.94 102.97 2.80 43
2 01/03/2020 22:45:24 -79.70, 38.31 77.06 01/03/2020 22:45:53 -79.69, 38.29 77.06 0.74 29
3 01/03/2020 23:36:30 79.70,-154.43 102.94 01/03/2020 23:36:33 79.70,-154.35 102.95 1.66 3
4 01/04/2020 00:27:24 -79.68, 13.01 77.07 01/04/2020 00:27:14 -79.69, 12.88 77.08 2.75 10
5 01/04/2020 01:18:30 79.68,-179.72 102.93 01/04/2020 01:17:54 79.69,-179.76 102.93 1.53 36
6 01/04/2020 02:09:25 -79.69, -12.58 77.08 01/04/2020 02:08:35 -79.68, -12.53 77.10 1.53 50
7 01/04/2020 03:00:30 79.66, 154.98 102.91 01/04/2020 02:59:15 79.68, 154.83 102.91 3.91 75
8 01/14/2020 15:29:05 -79.72, 147.62 78.57 01/14/2020 15:30:20 -79.73, 147.50 78.55 2.64 75
9 01/14/2020 16:20:11 79.73, -45.32 101.44 01/14/2020 16:21:00 79.71, -45.36 101.42 2.93 49
10 01/14/2020 17:11:06 -79.72, 122.03 78.58 01/14/2020 17:11:41 -79.72, 122.09 78.57 1.37 35
11 01/14/2020 18:02:11 79.71, -70.62 101.42 01/14/2020 18:02:20 79.73, -70.48 101.44 3.19 9
12 01/14/2020 18:53:06 -79.71, 96.73 78.60 01/14/2020 18:53:02 -79.71, 96.68 78.60 1.17 4
13 01/14/2020 19:44:11 79.69, -95.91 101.40 01/14/2020 19:43:41 79.72, -95.89 101.42 2.95 30
14 01/14/2020 20:35:07 -79.71, 71.14 78.61 01/14/2020 20:34:23 -79.70, 71.27 78.62 2.85 44
15 01/14/2020 21:26:12 79.70,-121.50 101.39 01/14/2020 21:25:03 79.68,-121.59 101.35 2.94 69




NCC Satellite Simultaneous Nadir Overpasses (SNOs) Prediction Service
